| time (UTC) | temp F | wind direction | speed MPH | gust MPH | rain 1hr in | rain 24hr in | rain mn in | humidity % | barometer mb |
| 20260509233016 | 45 | 135 | 3.0 | 7.0 | 0.00 | 0.21 | 0.21 | 96 | 1010.3 |
| 20260509232516 | 45 | 90 | 5.0 | 9.0 | 0.00 | 0.21 | 0.21 | 96 | 1010.4 |
| 20260509232016 | 45 | 135 | 3.0 | 5.0 | 0.00 | 0.21 | 0.21 | 97 | 1010.4 |
| 20260509231516 | 45 | 135 | 3.0 | 7.0 | 0.00 | 0.21 | 0.21 | 97 | 1010.4 |
| 20260509231036 | 45 | 135 | 3.0 | 8.0 | 0.00 | 0.21 | 0.21 | 97 | 1010.4 |
| 20260509230516 | 45 | 113 | 4.0 | 8.0 | 0.00 | 0.21 | 0.21 | 97 | 1010.3 |
| 20260509230016 | 45 | 158 | 2.0 | 5.0 | 0.00 | 0.21 | 0.21 | 97 | 1010.3 |
| 20260509225536 | 45 | 90 | 4.0 | 7.0 | 0.00 | 0.21 | 0.21 | 97 | 1010.3 |
| 20260509225016 | 45 | 113 | 4.0 | 7.0 | 0.00 | 0.21 | 0.21 | 97 | 1010.4 |
| 20260509224516 | 44 | 113 | 3.0 | 7.0 | 0.00 | 0.21 | 0.21 | 97 | 1010.5 |
| 20260509224016 | 44 | 135 | 4.0 | 7.0 | 0.00 | 0.21 | 0.21 | 97 | 1010.5 |
| 20260509223516 | 44 | 113 | 3.0 | 5.0 | 0.00 | 0.21 | 0.21 | 97 | 1010.5 |
| 20260509223016 | 44 | 135 | 2.0 | 5.0 | 0.00 | 0.21 | 0.21 | 97 | 1010.5 |
| 20260509222516 | 44 | 113 | 3.0 | 6.0 | 0.00 | 0.21 | 0.21 | 97 | 1010.6 |
| 20260509222016 | 44 | 135 | 3.0 | 6.0 | 0.00 | 0.21 | 0.21 | 97 | 1010.6 |
| 20260509221536 | 44 | 113 | 3.0 | 7.0 | 0.00 | 0.21 | 0.21 | 97 | 1010.7 |
| 20260509221016 | 44 | 135 | 2.0 | 5.0 | 0.00 | 0.21 | 0.21 | 97 | 1010.7 |
| 20260509220516 | 44 | 135 | 3.0 | 7.0 | 0.00 | 0.21 | 0.21 | 97 | 1010.8 |
| 20260509220016 | 44 | 135 | 3.0 | 7.0 | 0.00 | 0.21 | 0.21 | 97 | 1010.8 |
| 20260509215516 | 44 | 135 | 3.0 | 8.0 | 0.00 | 0.21 | 0.21 | 97 | 1010.6 |
| 20260509215015 | 44 | 68 | 3.0 | 7.0 | 0.00 | 0.21 | 0.21 | 97 | 1010.6 |
| 20260509214516 | 44 | 135 | 3.0 | 6.0 | 0.00 | 0.21 | 0.21 | 97 | 1010.7 |
| 20260509214016 | 44 | 90 | 2.0 | 6.0 | 0.00 | 0.21 | 0.21 | 97 | 1010.8 |
| 20260509213536 | 44 | 113 | 2.0 | 8.0 | 0.00 | 0.21 | 0.21 | 97 | 1010.9 |
| 20260509213036 | 44 | 135 | 3.0 | 5.0 | 0.00 | 0.21 | 0.21 | 97 | 1010.9 |
| 20260509212516 | 44 | 113 | 2.0 | 6.0 | 0.00 | 0.21 | 0.21 | 97 | 1011.0 |
| 20260509212016 | 44 | 135 | 2.0 | 4.0 | 0.00 | 0.21 | 0.21 | 96 | 1011.0 |
| 20260509211516 | 44 | 90 | 4.0 | 10.0 | 0.01 | 0.21 | 0.21 | 96 | 1011.0 |
| 20260509211016 | 44 | 113 | 3.0 | 6.0 | 0.01 | 0.21 | 0.21 | 96 | 1011.1 |
| 20260509210516 | 44 | 113 | 3.0 | 6.0 | 0.01 | 0.21 | 0.21 | 96 | 1011.1 |
| 20260509210016 | 44 | 135 | 2.0 | 7.0 | 0.01 | 0.21 | 0.21 | 96 | 1011.1 |
| 20260509205516 | 44 | 135 | 3.0 | 6.0 | 0.01 | 0.21 | 0.21 | 96 | 1011.1 |
| 20260509205016 | 44 | 135 | 3.0 | 6.0 | 0.02 | 0.21 | 0.21 | 96 | 1011.1 |
| 20260509204516 | 44 | 135 | 2.0 | 4.0 | 0.02 | 0.21 | 0.21 | 96 | 1011.2 |
| 20260509204016 | 44 | 135 | 2.0 | 5.0 | 0.02 | 0.21 | 0.21 | 97 | 1011.1 |
| 20260509203516 | 44 | 135 | 2.0 | 6.0 | 0.02 | 0.21 | 0.21 | 96 | 1011.1 |
| 20260509203016 | 44 | 113 | 3.0 | 8.0 | 0.03 | 0.21 | 0.21 | 96 | 1011.1 |
| 20260509202536 | 44 | 68 | 3.0 | 5.0 | 0.03 | 0.21 | 0.21 | 96 | 1011.1 |
| 20260509202016 | 44 | 113 | 2.0 | 6.0 | 0.03 | 0.21 | 0.21 | 96 | 1011.3 |
| 20260509201516 | 44 | 135 | 3.0 | 8.0 | 0.02 | 0.20 | 0.20 | 97 | 1011.3 |
| 20260509201036 | 44 | 90 | 4.0 | 7.0 | 0.03 | 0.20 | 0.20 | 97 | 1011.3 |
| 20260509200516 | 44 | 113 | 4.0 | 10.0 | 0.03 | 0.20 | 0.20 | 97 | 1011.3 |
| 20260509200016 | 44 | 135 | 2.0 | 6.0 | 0.04 | 0.20 | 0.20 | 97 | 1011.3 |
| 20260509195516 | 44 | 113 | 3.0 | 6.0 | 0.04 | 0.20 | 0.20 | 97 | 1011.3 |
| 20260509195016 | 44 | 90 | 4.0 | 9.0 | 0.03 | 0.19 | 0.19 | 97 | 1011.3 |
| 20260509194516 | 43 | 135 | 3.0 | 8.0 | 0.03 | 0.19 | 0.19 | 97 | 1011.3 |
| 20260509194016 | 43 | 113 | 4.0 | 9.0 | 0.03 | 0.19 | 0.19 | 97 | 1011.4 |
| 20260509193516 | 43 | 113 | 4.0 | 8.0 | 0.04 | 0.19 | 0.19 | 97 | 1011.4 |
| 20260509193036 | 43 | 113 | 4.0 | 8.0 | 0.03 | 0.18 | 0.18 | 97 | 1011.4 |
| 20260509192516 | 43 | 113 | 4.0 | 9.0 | 0.03 | 0.18 | 0.18 | 96 | 1011.5 |
| 20260509192016 | 43 | 135 | 3.0 | 8.0 | 0.04 | 0.18 | 0.18 | 97 | 1011.5 |
| 20260509191516 | 43 | 113 | 3.0 | 7.0 | 0.04 | 0.18 | 0.18 | 97 | 1011.5 |
| 20260509191015 | 43 | 113 | 4.0 | 9.0 | 0.03 | 0.17 | 0.17 | 97 | 1011.6 |
| 20260509190515 | 43 | 113 | 4.0 | 9.0 | 0.03 | 0.17 | 0.17 | 97 | 1011.5 |
| 20260509190016 | 43 | 113 | 4.0 | 8.0 | 0.03 | 0.16 | 0.16 | 97 | 1011.6 |
| 20260509185516 | 43 | 90 | 4.0 | 10.0 | 0.03 | 0.16 | 0.16 | 97 | 1011.6 |
| 20260509185016 | 43 | 135 | 4.0 | 10.0 | 0.03 | 0.16 | 0.16 | 96 | 1011.6 |
| 20260509184516 | 43 | 113 | 4.0 | 10.0 | 0.03 | 0.16 | 0.16 | 96 | 1011.7 |
| 20260509184016 | 43 | 135 | 5.0 | 14.0 | 0.03 | 0.16 | 0.16 | 96 | 1011.7 |
| 20260509183516 | 43 | 113 | 4.0 | 8.0 | 0.03 | 0.15 | 0.15 | 96 | 1011.7 |
| 20260509183016 | 43 | 113 | 4.0 | 7.0 | 0.03 | 0.15 | 0.15 | 96 | 1011.7 |
| 20260509182516 | 43 | 135 | 3.0 | 8.0 | 0.03 | 0.15 | 0.15 | 96 | 1011.8 |
| 20260509182016 | 43 | 90 | 3.0 | 8.0 | 0.02 | 0.14 | 0.14 | 96 | 1011.9 |
| 20260509181516 | 43 | 68 | 3.0 | 9.0 | 0.02 | 0.14 | 0.14 | 96 | 1011.9 |
| 20260509181016 | 43 | 90 | 4.0 | 11.0 | 0.02 | 0.14 | 0.14 | 96 | 1011.9 |
| 20260509180516 | 43 | 113 | 5.0 | 10.0 | 0.03 | 0.14 | 0.14 | 96 | 1011.8 |
| 20260509180016 | 43 | 135 | 5.0 | 10.0 | 0.02 | 0.13 | 0.13 | 96 | 1011.8 |
| 20260509175516 | 43 | 113 | 5.0 | 10.0 | 0.02 | 0.13 | 0.13 | 95 | 1011.9 |
| 20260509175036 | 43 | 135 | 3.0 | 7.0 | 0.02 | 0.13 | 0.13 | 96 | 1011.9 |
| 20260509174516 | 43 | 135 | 4.0 | 9.0 | 0.02 | 0.13 | 0.13 | 95 | 1011.9 |
| 20260509174016 | 43 | 135 | 3.0 | 7.0 | 0.03 | 0.13 | 0.13 | 96 | 1011.9 |
| 20260509173516 | 43 | 135 | 5.0 | 11.0 | 0.02 | 0.12 | 0.12 | 96 | 1012.0 |
| 20260509173016 | 44 | 90 | 5.0 | 10.0 | 0.03 | 0.12 | 0.12 | 95 | 1012.0 |
| 20260509172516 | 44 | 113 | 3.0 | 8.0 | 0.03 | 0.12 | 0.12 | 96 | 1012.0 |
| 20260509172016 | 44 | 135 | 4.0 | 7.0 | 0.04 | 0.12 | 0.12 | 96 | 1012.1 |
| 20260509171516 | 44 | 113 | 4.0 | 12.0 | 0.04 | 0.12 | 0.12 | 96 | 1012.1 |
| 20260509171016 | 44 | 90 | 5.0 | 9.0 | 0.05 | 0.12 | 0.12 | 96 | 1012.1 |
| 20260509170536 | 43 | 135 | 4.0 | 8.0 | 0.04 | 0.11 | 0.11 | 96 | 1012.3 |
| 20260509170016 | 43 | 135 | 3.0 | 8.0 | 0.05 | 0.11 | 0.11 | 96 | 1012.4 |
| 20260509165516 | 43 | 90 | 4.0 | 9.0 | 0.06 | 0.11 | 0.11 | 96 | 1012.5 |
| 20260509165016 | 43 | 135 | 3.0 | 6.0 | 0.06 | 0.11 | 0.11 | 96 | 1012.5 |
| 20260509164516 | 43 | 113 | 4.0 | 9.0 | 0.07 | 0.11 | 0.11 | 96 | 1012.5 |
| 20260509164016 | 43 | 68 | 4.0 | 13.0 | 0.06 | 0.10 | 0.10 | 96 | 1012.6 |
| 20260509163516 | 43 | 113 | 3.0 | 7.0 | 0.07 | 0.10 | 0.10 | 96 | 1012.6 |
| 20260509163016 | 43 | 135 | 4.0 | 7.0 | 0.06 | 0.09 | 0.09 | 96 | 1012.7 |
| 20260509162536 | 43 | 90 | 3.0 | 7.0 | 0.06 | 0.09 | 0.09 | 95 | 1012.8 |
| 20260509162036 | 43 | 90 | 4.0 | 7.0 | 0.05 | 0.08 | 0.08 | 95 | 1012.8 |
| 20260509161516 | 43 | 68 | 4.0 | 8.0 | 0.05 | 0.08 | 0.08 | 95 | 1012.9 |
| 20260509161036 | 43 | 90 | 5.0 | 9.0 | 0.04 | 0.07 | 0.07 | 94 | 1012.9 |
| 20260509160516 | 43 | 135 | 3.0 | 6.0 | 0.05 | 0.07 | 0.07 | 94 | 1012.9 |
| 20260509160016 | 43 | 90 | 6.0 | 11.0 | 0.05 | 0.06 | 0.06 | 94 | 1013.0 |
| 20260509155516 | 43 | 90 | 4.0 | 8.0 | 0.04 | 0.05 | 0.05 | 94 | 1013.0 |
| 20260509155016 | 43 | 135 | 3.0 | 7.0 | 0.04 | 0.05 | 0.05 | 94 | 1013.1 |
| 20260509154516 | 43 | 113 | 4.0 | 7.0 | 0.03 | 0.04 | 0.04 | 94 | 1013.2 |
| 20260509154016 | 43 | 90 | 4.0 | 7.0 | 0.03 | 0.04 | 0.04 | 93 | 1013.3 |
| 20260509153516 | 43 | 135 | 3.0 | 8.0 | 0.03 | 0.03 | 0.03 | 93 | 1013.3 |
| 20260509153016 | 43 | 113 | 3.0 | 6.0 | 0.03 | 0.03 | 0.03 | 92 | 1013.4 |
| 20260509152516 | 43 | 90 | 3.0 | 7.0 | 0.03 | 0.03 | 0.03 | 92 | 1013.4 |
| 20260509152016 | 43 | 113 | 3.0 | 7.0 | 0.03 | 0.03 | 0.03 | 91 | 1013.4 |
| 20260509151516 | 43 | 135 | 1.0 | 4.0 | 0.03 | 0.03 | 0.03 | 91 | 1013.4 |
| 20260509151016 | 43 | 135 | 1.0 | 3.0 | 0.03 | 0.03 | 0.03 | 90 | 1013.4 |
| 20260509150516 | 43 | 158 | 2.0 | 8.0 | 0.02 | 0.02 | 0.02 | 89 | 1013.5 |
| 20260509150016 | 43 | 90 | 3.0 | 7.0 | 0.01 | 0.01 | 0.01 | 88 | 1013.5 |
| 20260509145536 | 43 | 90 | 3.0 | 4.0 | 0.01 | 0.01 | 0.01 | 86 | 1013.5 |
| 20260509145036 | 43 | 113 | 2.0 | 3.0 | 0.01 | 0.01 | 0.01 | 86 | 1013.5 |
| 20260509144516 | 43 | 135 | 2.0 | 4.0 | 0.01 | 0.01 | 0.01 | 84 | 1013.5 |
| 20260509144036 | 44 | 135 | 3.0 | 5.0 | 0.01 | 0.01 | 0.01 | 83 | 1013.5 |
| 20260509143516 | 44 | 135 | 4.0 | 8.0 | 0.00 | 0.00 | 0.00 | 81 | 1013.4 |
| 20260509143016 | 45 | 113 | 3.0 | 7.0 | 0.00 | 0.00 | 0.00 | 79 | 1013.3 |
| 20260509142536 | 45 | 135 | 3.0 | 8.0 | 0.00 | 0.00 | 0.00 | 79 | 1013.2 |
| 20260509142036 | 45 | 113 | 2.0 | 5.0 | 0.00 | 0.00 | 0.00 | 77 | 1013.2 |
| 20260509141516 | 45 | 90 | 3.0 | 5.0 | 0.00 | 0.00 | 0.00 | 75 | 1013.1 |
| 20260509141016 | 46 | 158 | 2.0 | 7.0 | 0.00 | 0.00 | 0.00 | 73 | 1013.2 |
| 20260509140516 | 46 | 135 | 2.0 | 4.0 | 0.00 | 0.00 | 0.00 | 73 | 1013.2 |
| 20260509140016 | 46 | 113 | 2.0 | 6.0 | 0.00 | 0.00 | 0.00 | 72 | 1013.3 |
| 20260509135516 | 46 | 135 | 3.0 | 5.0 | 0.00 | 0.00 | 0.00 | 71 | 1013.2 |
| 20260509135016 | 46 | 158 | 2.0 | 4.0 | 0.00 | 0.00 | 0.00 | 72 | 1013.1 |
| 20260509134516 | 46 | 113 | 2.0 | 6.0 | 0.00 | 0.00 | 0.00 | 71 | 1013.1 |
| 20260509134016 | 46 | 90 | 5.0 | 10.0 | 0.00 | 0.00 | 0.00 | 70 | 1013.0 |
| 20260509133537 | 46 | 203 | 4.0 | 9.0 | 0.00 | 0.00 | 0.00 | 70 | 1013.0 |
| 20260509133016 | 46 | 180 | 4.0 | 9.0 | 0.00 | 0.00 | 0.00 | 71 | 1013.0 |
| 20260509132516 | 46 | 158 | 4.0 | 12.0 | 0.00 | 0.00 | 0.00 | 72 | 1013.0 |
| 20260509132016 | 47 | 113 | 5.0 | 13.0 | 0.00 | 0.00 | 0.00 | 72 | 1013.2 |
| 20260509131516 | 47 | 90 | 3.0 | 8.0 | 0.00 | 0.00 | 0.00 | 70 | 1013.1 |
| 20260509131016 | 47 | 158 | 4.0 | 8.0 | 0.00 | 0.00 | 0.00 | 69 | 1013.1 |
| 20260509130516 | 46 | 203 | 5.0 | 9.0 | 0.00 | 0.00 | 0.00 | 70 | 1013.1 |
| 20260509130016 | 46 | 135 | 4.0 | 7.0 | 0.00 | 0.00 | 0.00 | 69 | 1013.1 |
| 20260509125517 | 46 | 135 | 5.0 | 13.0 | 0.00 | 0.00 | 0.00 | 70 | 1013.2 |
| 20260509125016 | 46 | 135 | 5.0 | 10.0 | 0.00 | 0.00 | 0.00 | 67 | 1013.3 |
| 20260509124516 | 46 | 135 | 5.0 | 13.0 | 0.00 | 0.00 | 0.00 | 67 | 1013.3 |
| 20260509124016 | 46 | 90 | 3.0 | 9.0 | 0.00 | 0.00 | 0.00 | 65 | 1013.2 |
| 20260509123516 | 46 | 158 | 2.0 | 5.0 | 0.00 | 0.00 | 0.00 | 64 | 1013.3 |
| 20260509123016 | 46 | 135 | 4.0 | 8.0 | 0.00 | 0.00 | 0.00 | 64 | 1013.4 |
| 20260509122516 | 46 | 158 | 4.0 | 9.0 | 0.00 | 0.00 | 0.00 | 63 | 1013.4 |
| 20260509122016 | 46 | 158 | 3.0 | 7.0 | 0.00 | 0.00 | 0.00 | 63 | 1013.5 |
| 20260509121516 | 46 | 113 | 2.0 | 8.0 | 0.00 | 0.00 | 0.00 | 64 | 1013.4 |
| 20260509121016 | 46 | 135 | 3.0 | 7.0 | 0.00 | 0.00 | 0.00 | 64 | 1013.4 |
| 20260509120516 | 45 | 135 | 3.0 | 7.0 | 0.00 | 0.00 | 0.00 | 66 | 1013.5 |
| 20260509120016 | 45 | 68 | 4.0 | 7.0 | 0.00 | 0.00 | 0.00 | 63 | 1013.5 |
| 20260509115516 | 45 | 135 | 2.0 | 5.0 | 0.00 | 0.00 | 0.00 | 64 | 1013.5 |
| 20260509115016 | 44 | 135 | 3.0 | 7.0 | 0.00 | 0.00 | 0.00 | 63 | 1013.5 |
| 20260509114516 | 44 | 90 | 3.0 | 8.0 | 0.00 | 0.00 | 0.00 | 63 | 1013.5 |
| 20260509114016 | 43 | 90 | 3.0 | 7.0 | 0.00 | 0.00 | 0.00 | 65 | 1013.5 |
| 20260509113516 | 42 | 135 | 1.0 | 4.0 | 0.00 | 0.00 | 0.00 | 68 | 1013.6 |
| 20260509113057 | 41 | 0.0 | 1.0 | 0.00 | 0.00 | 0.00 | 67 | 1013.6 | |
| 20260509112516 | 40 | 135 | 1.0 | 3.0 | 0.00 | 0.00 | 0.00 | 71 | 1013.6 |
| 20260509112016 | 40 | 0.0 | 0.0 | 0.00 | 0.00 | 0.00 | 73 | 1013.6 | |
| 20260509111516 | 40 | 0.0 | 3.0 | 0.00 | 0.00 | 0.00 | 75 | 1013.6 | |
| 20260509111016 | 39 | 113 | 1.0 | 3.0 | 0.00 | 0.00 | 0.00 | 71 | 1013.6 |
| 20260509110516 | 39 | 113 | 1.0 | 5.0 | 0.00 | 0.00 | 0.00 | 75 | 1013.7 |
| 20260509110016 | 38 | 113 | 2.0 | 5.0 | 0.00 | 0.00 | 0.00 | 74 | 1013.7 |
| 20260509105516 | 37 | 90 | 1.0 | 4.0 | 0.00 | 0.00 | 0.00 | 78 | 1013.7 |
| 20260509105016 | 36 | 113 | 1.0 | 3.0 | 0.00 | 0.00 | 0.00 | 84 | 1013.7 |
| 20260509104516 | 34 | 113 | 1.0 | 6.0 | 0.00 | 0.00 | 0.00 | 87 | 1013.7 |
| 20260509104016 | 33 | 0.0 | 1.0 | 0.00 | 0.00 | 0.00 | 95 | 1013.6 | |
| 20260509103536 | 31 | 0.0 | 2.0 | 0.00 | 0.00 | 0.00 | 98 | 1013.6 | |
| 20260509103016 | 30 | 0.0 | 1.0 | 0.00 | 0.00 | 0.00 | 98 | 1013.5 | |
| 20260509102516 | 29 | 0.0 | 0.0 | 0.00 | 0.00 | 0.00 | 98 | 1013.5 | |
| 20260509102016 | 29 | 0.0 | 0.0 | 0.00 | 0.00 | 0.00 | 98 | 1013.5 | |
| 20260509101516 | 29 | 0.0 | 0.0 | 0.00 | 0.00 | 0.00 | 98 | 1013.5 | |
| 20260509101036 | 28 | 0.0 | 0.0 | 0.00 | 0.00 | 0.00 | 98 | 1013.6 | |
| 20260509100529 | 28 | 0.0 | 1.0 | 0.00 | 0.00 | 0.00 | 97 | 1013.6 | |
| 20260509100016 | 28 | 0.0 | 0.0 | 0.00 | 0.00 | 0.00 | 97 | 1013.6 | |
| 20260509095516 | 28 | 0.0 | 0.0 | 0.00 | 0.00 | 0.00 | 97 | 1013.6 | |
| 20260509095016 | 27 | 0.0 | 1.0 | 0.00 | 0.00 | 0.00 | 97 | 1013.6 | |
| 20260509094516 | 27 | 0.0 | 0.0 | 0.00 | 0.00 | 0.00 | 97 | 1013.5 | |
| 20260509094016 | 27 | 0.0 | 0.0 | 0.00 | 0.00 | 0.00 | 97 | 1013.4 | |
| 20260509093516 | 27 | 0.0 | 1.0 | 0.00 | 0.00 | 0.00 | 97 | 1013.4 | |
| 20260509093036 | 27 | 0.0 | 0.0 | 0.00 | 0.00 | 0.00 | 97 | 1013.3 | |
| 20260509092516 | 28 | 0.0 | 0.0 | 0.00 | 0.00 | 0.00 | 97 | 1013.3 | |
| 20260509092016 | 27 | 0.0 | 1.0 | 0.00 | 0.00 | 0.00 | 97 | 1013.3 | |
| 20260509091516 | 27 | 0.0 | 0.0 | 0.00 | 0.00 | 0.00 | 97 | 1013.3 | |
| 20260509091016 | 27 | 0.0 | 0.0 | 0.00 | 0.00 | 0.00 | 97 | 1013.3 | |
| 20260509090536 | 27 | 0.0 | 0.0 | 0.00 | 0.00 | 0.00 | 96 | 1013.4 | |
| 20260509090016 | 28 | 0.0 | 0.0 | 0.00 | 0.00 | 0.00 | 97 | 1013.4 | |
| 20260509085516 | 28 | 0.0 | 0.0 | 0.00 | 0.00 | 0.00 | 97 | 1013.3 | |
| 20260509085016 | 27 | 0.0 | 0.0 | 0.00 | 0.00 | 0.00 | 97 | 1013.3 | |
| 20260509084516 | 27 | 0.0 | 0.0 | 0.00 | 0.00 | 0.00 | 97 | 1013.2 | |
| 20260509084016 | 27 | 0.0 | 0.0 | 0.00 | 0.00 | 0.00 | 97 | 1013.1 | |
| 20260509083536 | 28 | 0.0 | 0.0 | 0.00 | 0.00 | 0.00 | 96 | 1013.1 | |
| 20260509083016 | 28 | 0.0 | 0.0 | 0.00 | 0.00 | 0.00 | 96 | 1013.1 | |
| 20260509082516 | 28 | 0.0 | 0.0 | 0.00 | 0.00 | 0.00 | 96 | 1013.1 | |
| 20260509082016 | 28 | 0.0 | 0.0 | 0.00 | 0.00 | 0.00 | 96 | 1013.0 | |
| 20260509081516 | 28 | 0.0 | 0.0 | 0.00 | 0.00 | 0.00 | 96 | 1013.1 | |
| 20260509081016 | 28 | 0.0 | 0.0 | 0.00 | 0.00 | 0.00 | 96 | 1013.1 | |
| 20260509080536 | 28 | 0.0 | 1.0 | 0.00 | 0.00 | 0.00 | 96 | 1013.0 | |
| 20260509080016 | 28 | 0.0 | 0.0 | 0.00 | 0.00 | 0.00 | 96 | 1013.0 | |
| 20260509075516 | 28 | 0.0 | 0.0 | 0.00 | 0.00 | 0.00 | 96 | 1012.9 | |
| 20260509075016 | 28 | 0.0 | 0.0 | 0.00 | 0.00 | 0.00 | 96 | 1012.8 | |
| 20260509074536 | 28 | 0.0 | 1.0 | 0.00 | 0.00 | 0.00 | 96 | 1012.8 | |
| 20260509074036 | 28 | 0.0 | 1.0 | 0.00 | 0.00 | 0.00 | 96 | 1012.9 | |
| 20260509073516 | 28 | 0.0 | 1.0 | 0.00 | 0.00 | 0.00 | 96 | 1012.9 | |
| 20260509073040 | 28 | 0.0 | 1.0 | 0.00 | 0.00 | 0.00 | 96 | 1013.0 | |
| 20260509072516 | 28 | 0.0 | 1.0 | 0.00 | 0.00 | 0.00 | 96 | 1013.0 | |
| 20260509072016 | 28 | 0.0 | 1.0 | 0.00 | 0.00 | 0.00 | 96 | 1013.1 | |
| 20260509071536 | 28 | 0.0 | 1.0 | 0.00 | 0.00 | 0.00 | 96 | 1013.2 | |
| 20260509071036 | 28 | 0.0 | 0.0 | 0.00 | 0.00 | 0.00 | 96 | 1013.3 | |
| 20260509070516 | 28 | 0.0 | 0.0 | 0.00 | 0.00 | 0.00 | 96 | 1013.3 | |
| 20260509070016 | 28 | 0.0 | 0.0 | 0.00 | 0.00 | 0.00 | 96 | 1013.4 | |
| 20260509065516 | 28 | 0.0 | 1.0 | 0.00 | 0.00 | 0.00 | 96 | 1013.4 | |
| 20260509065016 | 28 | 0.0 | 0.0 | 0.00 | 0.00 | 0.00 | 96 | 1013.4 | |
| 20260509064516 | 28 | 0.0 | 0.0 | 0.00 | 0.00 | 0.00 | 96 | 1013.5 | |
| 20260509064017 | 28 | 0.0 | 1.0 | 0.00 | 0.00 | 0.00 | 96 | 1013.5 | |
| 20260509063516 | 28 | 0.0 | 0.0 | 0.00 | 0.00 | 0.00 | 95 | 1013.6 | |
| 20260509063036 | 28 | 0.0 | 0.0 | 0.00 | 0.00 | 0.00 | 95 | 1013.6 | |
| 20260509062516 | 28 | 0.0 | 0.0 | 0.00 | 0.00 | 0.00 | 95 | 1013.6 | |
| 20260509062016 | 28 | 0.0 | 0.0 | 0.00 | 0.00 | 0.00 | 95 | 1013.6 | |
| 20260509061516 | 28 | 0.0 | 0.0 | 0.00 | 0.00 | 0.00 | 95 | 1013.6 | |
| 20260509061036 | 28 | 0.0 | 1.0 | 0.00 | 0.00 | 0.00 | 95 | 1013.6 | |
| 20260509060520 | 28 | 0.0 | 1.0 | 0.00 | 0.00 | 0.00 | 95 | 1013.6 | |
| 20260509060020 | 29 | 0.0 | 0.0 | 0.00 | 0.00 | 0.00 | 95 | 1013.6 | |
| 20260509055516 | 29 | 0.0 | 0.0 | 0.00 | 0.00 | 0.00 | 95 | 1013.7 | |
| 20260509055016 | 29 | 0.0 | 1.0 | 0.00 | 0.00 | 0.00 | 95 | 1013.6 | |
| 20260509054516 | 29 | 0.0 | 0.0 | 0.00 | 0.00 | 0.00 | 95 | 1013.6 | |
| 20260509054036 | 29 | 0.0 | 0.0 | 0.00 | 0.00 | 0.00 | 95 | 1013.6 | |
| 20260509053516 | 29 | 0.0 | 0.0 | 0.00 | 0.00 | 0.00 | 95 | 1013.6 | |
| 20260509053016 | 29 | 0.0 | 0.0 | 0.00 | 0.00 | 0.00 | 95 | 1013.6 | |
| 20260509052516 | 29 | 0.0 | 0.0 | 0.00 | 0.00 | 0.00 | 95 | 1013.6 | |
| 20260509052016 | 29 | 0.0 | 0.0 | 0.00 | 0.00 | 0.00 | 94 | 1013.6 | |
| 20260509051516 | 29 | 0.0 | 1.0 | 0.00 | 0.00 | 0.00 | 94 | 1013.6 | |
| 20260509051016 | 29 | 0.0 | 1.0 | 0.00 | 0.00 | 0.00 | 94 | 1013.4 | |
| 20260509050516 | 29 | 0.0 | 0.0 | 0.00 | 0.00 | 0.00 | 94 | 1013.4 | |
| 20260509050016 | 29 | 0.0 | 1.0 | 0.00 | 0.00 | 0.00 | 94 | 1013.4 | |
| 20260509045516 | 29 | 0.0 | 0.0 | 0.00 | 0.00 | 0.00 | 94 | 1013.4 | |
| 20260509045036 | 30 | 0.0 | 1.0 | 0.00 | 0.00 | 0.00 | 94 | 1013.4 | |
| 20260509044536 | 30 | 0.0 | 1.0 | 0.00 | 0.00 | 0.00 | 94 | 1013.4 | |
| 20260509044016 | 30 | 0.0 | 0.0 | 0.00 | 0.00 | 0.00 | 93 | 1013.3 | |
| 20260509043516 | 30 | 0.0 | 0.0 | 0.00 | 0.00 | 0.00 | 93 | 1013.2 | |
| 20260509043016 | 30 | 0.0 | 1.0 | 0.00 | 0.00 | 0.00 | 93 | 1013.2 | |
| 20260509042536 | 30 | 0.0 | 1.0 | 0.00 | 0.00 | 0.00 | 93 | 1013.1 | |
| 20260509042016 | 30 | 0.0 | 1.0 | 0.00 | 0.00 | 0.00 | 93 | 1013.1 | |
| 20260509041516 | 30 | 0.0 | 1.0 | 0.00 | 0.00 | 0.00 | 93 | 1013.1 | |
| 20260509041016 | 30 | 0.0 | 1.0 | 0.00 | 0.00 | 0.00 | 93 | 1013.1 | |
| 20260509040516 | 31 | 0.0 | 1.0 | 0.00 | 0.00 | 0.00 | 93 | 1013.1 | |
| 20260509040016 | 31 | 0.0 | 1.0 | 0.00 | 0.00 | 0.00 | 92 | 1013.1 | |
| 20260509035516 | 31 | 0.0 | 1.0 | 0.00 | 0.00 | 0.00 | 92 | 1013.2 | |
| 20260509035016 | 31 | 0.0 | 1.0 | 0.00 | 0.00 | 0.00 | 92 | 1013.1 | |
| 20260509034516 | 31 | 0.0 | 1.0 | 0.00 | 0.00 | 0.00 | 92 | 1013.1 | |
| 20260509034016 | 31 | 0.0 | 1.0 | 0.00 | 0.00 | 0.00 | 91 | 1013.1 | |
| 20260509033516 | 32 | 0.0 | 0.0 | 0.00 | 0.00 | 0.00 | 91 | 1013.1 | |
| 20260509033016 | 32 | 0.0 | 1.0 | 0.00 | 0.00 | 0.00 | 91 | 1013.1 | |
| 20260509032516 | 32 | 0.0 | 0.0 | 0.00 | 0.00 | 0.00 | 90 | 1013.1 | |
| 20260509032016 | 32 | 0.0 | 1.0 | 0.00 | 0.00 | 0.00 | 90 | 1013.1 | |
| 20260509031516 | 32 | 0.0 | 1.0 | 0.00 | 0.00 | 0.00 | 90 | 1013.0 | |
| 20260509031016 | 33 | 0.0 | 2.0 | 0.00 | 0.00 | 0.00 | 90 | 1013.0 | |
| 20260509030536 | 33 | 0.0 | 1.0 | 0.00 | 0.00 | 0.00 | 89 | 1013.0 | |
| 20260509030016 | 33 | 90 | 1.0 | 2.0 | 0.00 | 0.00 | 0.00 | 90 | 1012.9 |
| 20260509025516 | 33 | 113 | 1.0 | 2.0 | 0.00 | 0.00 | 0.00 | 90 | 1013.0 |
| 20260509025016 | 33 | 0.0 | 0.0 | 0.00 | 0.00 | 0.00 | 90 | 1012.9 | |
| 20260509024516 | 33 | 113 | 1.0 | 2.0 | 0.00 | 0.00 | 0.00 | 89 | 1012.8 |
| 20260509024016 | 33 | 0.0 | 1.0 | 0.00 | 0.00 | 0.00 | 89 | 1012.7 | |
| 20260509023516 | 33 | 0.0 | 1.0 | 0.00 | 0.00 | 0.00 | 88 | 1012.7 | |
| 20260509023016 | 34 | 0.0 | 1.0 | 0.00 | 0.00 | 0.00 | 88 | 1012.7 | |
| 20260509022516 | 34 | 113 | 1.0 | 2.0 | 0.00 | 0.00 | 0.00 | 88 | 1012.7 |
| 20260509022016 | 34 | 0.0 | 1.0 | 0.00 | 0.00 | 0.00 | 88 | 1012.7 | |
| 20260509021516 | 34 | 0.0 | 0.0 | 0.00 | 0.00 | 0.00 | 88 | 1012.6 | |
| 20260509021016 | 35 | 0.0 | 1.0 | 0.00 | 0.00 | 0.00 | 87 | 1012.6 | |
| 20260509020536 | 35 | 0.0 | 1.0 | 0.00 | 0.00 | 0.00 | 87 | 1012.5 | |
| 20260509020016 | 35 | 0.0 | 1.0 | 0.00 | 0.00 | 0.00 | 87 | 1012.5 | |
| 20260509015516 | 35 | 0.0 | 1.0 | 0.00 | 0.00 | 0.00 | 86 | 1012.4 | |
| 20260509015016 | 36 | 0.0 | 1.0 | 0.00 | 0.00 | 0.00 | 85 | 1012.4 | |
| 20260509014536 | 36 | 0.0 | 1.0 | 0.00 | 0.00 | 0.00 | 85 | 1012.3 | |
| 20260509014016 | 36 | 0.0 | 0.0 | 0.00 | 0.00 | 0.00 | 84 | 1012.2 | |
| 20260509013516 | 37 | 0.0 | 0.0 | 0.00 | 0.00 | 0.00 | 84 | 1012.2 | |
| 20260509013036 | 37 | 0.0 | 0.0 | 0.00 | 0.00 | 0.00 | 83 | 1012.1 | |
| 20260509012516 | 37 | 0.0 | 1.0 | 0.00 | 0.00 | 0.00 | 82 | 1012.0 | |
| 20260509012016 | 38 | 0.0 | 1.0 | 0.00 | 0.00 | 0.00 | 81 | 1011.9 | |
| 20260509011516 | 38 | 0.0 | 1.0 | 0.00 | 0.00 | 0.00 | 80 | 1011.8 | |
| 20260509011036 | 39 | 0.0 | 0.0 | 0.00 | 0.00 | 0.00 | 78 | 1011.8 | |
| 20260509010516 | 40 | 0.0 | 0.0 | 0.00 | 0.00 | 0.00 | 78 | 1011.7 | |
| 20260509010129 | 40 | 0.0 | 1.0 | 0.00 | 0.00 | 0.00 | 75 | 1011.6 | |
| 20260509005516 | 41 | 0.0 | 0.0 | 0.00 | 0.00 | 0.00 | 73 | 1011.5 | |
| 20260509005056 | 41 | 0.0 | 1.0 | 0.00 | 0.00 | 0.00 | 70 | 1011.5 | |
| 20260509004536 | 42 | 0.0 | 0.0 | 0.00 | 0.00 | 0.00 | 70 | 1011.4 | |
| 20260509004016 | 43 | 0.0 | 1.0 | 0.00 | 0.00 | 0.00 | 68 | 1011.3 | |
| 20260509003516 | 43 | 0.0 | 1.0 | 0.00 | 0.00 | 0.00 | 68 | 1011.3 | |
| 20260509003036 | 43 | 0.0 | 2.0 | 0.00 | 0.00 | 0.00 | 69 | 1011.2 | |
| 20260509002516 | 43 | 0.0 | 0.0 | 0.00 | 0.00 | 0.00 | 70 | 1011.2 | |
| 20260509002016 | 43 | 0.0 | 0.0 | 0.00 | 0.00 | 0.00 | 71 | 1011.1 | |
| 20260509001516 | 43 | 0.0 | 2.0 | 0.00 | 0.00 | 0.00 | 69 | 1011.1 | |
| 20260509001016 | 43 | 0.0 | 2.0 | 0.00 | 0.00 | 0.00 | 69 | 1011.1 | |
| 20260509000516 | 43 | 0.0 | 0.0 | 0.00 | 0.00 | 0.00 | 69 | 1011.1 | |
| 20260509000016 | 44 | 0.0 | 1.0 | 0.00 | 0.00 | 0.00 | 68 | 1011.1 | |
| 20260508235543 | 44 | 248 | 1.0 | 3.0 | 0.00 | 0.00 | 0.00 | 68 | 1011.0 |
| 20260508235016 | 44 | 315 | 1.0 | 3.0 | 0.00 | 0.00 | 0.00 | 67 | 1010.9 |
| 20260508234516 | 44 | 0.0 | 4.0 | 0.00 | 0.00 | 0.00 | 68 | 1010.9 | |
| 20260508234016 | 44 | 0.0 | 2.0 | 0.00 | 0.00 | 0.00 | 67 | 1010.8 | |
| 20260508233516 | 44 | 0.0 | 0.0 | 0.00 | 0.00 | 0.00 | 66 | 1010.9 |